Regional Weather Roundup
Issued by NWS

Home | Current Version | Previous Version | Text Only | Print | Product List | Glossary On
Versions: 1 2 3 4 5 6 7 8 9 10 11 12 13 14 15 16 17 18 19 20 21 22 23 24 25 26 27 28 29 30 31 32 33 34 35 36 37 38 39 40 41 42 43 44 45 46 47 48 49 50
000
ASCA42 TJSJ 311711
RWRPR
PUERTO RICO/U.S. VIRGIN ISLANDS HOURLY WEATHER ROUNDUP
NATIONAL WEATHER SERVICE SAN JUAN PR
100 PM AST SAT JAN 31 2015

PRZ001-004-311800-
PUERTO RICO

CITY           SKY/WX    TMP DP  RH WIND       PRES   REMARKS
SAN JUAN LMM   MOSUNNY   82  72  69 E13       30.01F
PONCE          MOSUNNY   84  70  61 SE14      29.98F
MAYAGUEZ       PTSUNNY   82  66  57 W8        30.05F
AGUADILLA      MOSUNNY   82  70  65 NE13      30.03F
CEIBA          SUNNY     82  72  69 NE9       30.04F
$$

PRZ006-007-311800-
U.S. VIRGIN ISLANDS

CITY           SKY/WX    TMP DP  RH WIND       PRES   REMARKS
CHRISTIANSTED  MOSUNNY   82  72  69 E12       30.02
$$

HOURLY WEATHER ROUNDUP FOR THE NEWS MEDIA

CITY           SKY/WX    TMP DP  RH WIND       PRES   REMARKS
MIAMI          PTSUNNY   74  52  46 NE14G24   30.23S
ORLANDO        SUNNY     69  48  47 E14       30.29S
NEW YORK       MOSUNNY   22  -1  36 NW28G40   30.12S WCI   4
NEWARK         SUNNY     22   2  42 W21G30    30.15F WCI   6
CHICAGO        PTSUNNY   33  21  61 W13       30.20F WCI  24
HARTFORD       SUNNY     21  -6  30 NW17G30   29.82S WCI   7
BOSTON         MOSUNNY   17  -5  37 NW29G40   29.84S WCI  -2
DALLAS         CLOUDY    50  33  52 SE12      30.19F
PHILADELPHIA   SUNNY     24   0  35 NW21G32   30.25F WCI   9



USA.gov is the U.S. government's official web portal to all federal, state and local government web resources and services.